TimeEST,TemperatureF,Dew PointF,Humidity,Sea Level PressureIn,VisibilityMPH,Wind Direction,Wind SpeedMPH,Gust SpeedMPH,PrecipitationIn,Events,Conditions,WindDirDegrees,DateUTC
12:03 AM,28.4,28.4,100,29.80,3.0,Calm,Calm,-,N/A,,Overcast,0,2014-02-13 05:03:00
12:18 AM,28.4,28.4,100,29.78,2.5,Calm,Calm,-,N/A,Snow,Light Snow,0,2014-02-13 05:18:00
12:53 AM,30.2,28.4,93,29.77,3.0,Calm,Calm,-,N/A,Snow,Light Snow,0,2014-02-13 05:53:00
12:58 AM,29.5,28.9,98,29.81,4.0,Calm,Calm,-,0.01,Snow,Light Snow,0,2014-02-13 05:58:00
1:23 AM,28.4,28.4,100,29.77,3.0,Calm,Calm,-,N/A,Snow,Light Snow,0,2014-02-13 06:23:00
1:33 AM,30.2,28.4,93,29.76,3.0,Calm,Calm,-,N/A,Snow,Light Snow,0,2014-02-13 06:33:00
1:38 AM,30.2,28.4,93,29.77,3.0,Calm,Calm,-,N/A,Snow,Light Snow,0,2014-02-13 06:38:00
1:58 AM,30.2,28.4,93,29.80,5.0,Calm,Calm,-,0.00,Snow,Light Snow,0,2014-02-13 06:58:00
2:03 AM,30.2,28.4,93,29.76,5.0,Calm,Calm,-,N/A,Snow,Light Snow,0,2014-02-13 07:03:00
2:52 AM,30.2,30.2,100,29.76,4.0,Calm,Calm,-,N/A,Snow,Light Snow,0,2014-02-13 07:52:00
2:57 AM,30.2,30.2,100,29.76,5.0,Calm,Calm,-,N/A,Snow,Light Snow,0,2014-02-13 07:57:00
2:58 AM,30.2,29.8,99,29.80,5.0,Calm,Calm,-,0.01,Snow,Light Snow,0,2014-02-13 07:58:00
3:03 AM,30.2,30.2,100,29.76,6.0,Calm,Calm,-,N/A,Snow,Light Snow,0,2014-02-13 08:03:00
3:04 AM,30.2,30.2,100,29.75,6.0,Calm,Calm,-,N/A,Snow,Light Snow,0,2014-02-13 08:04:00
3:08 AM,30.2,30.2,100,29.75,6.0,Calm,Calm,-,N/A,,Overcast,0,2014-02-13 08:08:00
3:18 AM,30.2,30.2,100,29.75,7.0,Calm,Calm,-,N/A,,Overcast,0,2014-02-13 08:18:00
3:23 AM,30.2,30.2,100,29.75,7.0,WNW,1.2,-,N/A,Snow,Light Snow,300,2014-02-13 08:23:00
3:28 AM,32.0,30.2,93,29.75,8.0,WNW,1.2,-,N/A,Snow,Light Snow,300,2014-02-13 08:28:00
3:33 AM,32.0,32.0,100,29.74,10.0,WNW,1.2,-,N/A,Snow,Light Snow,300,2014-02-13 08:33:00
3:53 AM,32.0,32.0,100,29.74,8.0,WNW,2.3,-,N/A,Snow,Light Snow,290,2014-02-13 08:53:00
3:58 AM,32.0,32.0,100,29.78,7.0,WNW,1.2,-,0.00,Snow,Light Snow,300,2014-02-13 08:58:00
4:13 AM,32.0,32.0,100,29.73,10.0,WNW,2.3,-,N/A,,Overcast,290,2014-02-13 09:13:00
4:25 AM,32.0,32.0,100,29.73,10.0,WNW,2.3,-,N/A,,Overcast,290,2014-02-13 09:25:00
4:45 AM,32.0,32.0,100,29.72,8.0,WNW,2.3,-,N/A,,Overcast,290,2014-02-13 09:45:00
4:58 AM,30.9,30.4,98,29.75,7.0,WNW,2.3,-,0.00,,Overcast,290,2014-02-13 09:58:00
5:08 AM,32.0,32.0,100,29.72,8.0,WNW,2.3,-,N/A,,Overcast,290,2014-02-13 10:08:00
5:18 AM,32.0,32.0,100,29.72,7.0,WNW,2.3,-,N/A,,Overcast,290,2014-02-13 10:18:00
5:19 AM,32.0,32.0,100,29.72,7.0,WNW,2.3,-,N/A,,Overcast,290,2014-02-13 10:19:00
5:24 AM,32.0,32.0,100,29.72,5.0,WNW,2.3,-,N/A,,Overcast,290,2014-02-13 10:24:00
5:34 AM,32.0,32.0,100,29.72,6.0,WNW,2.3,-,N/A,Snow,Light Snow,290,2014-02-13 10:34:00
5:39 AM,32.0,32.0,100,29.72,8.0,WNW,2.3,-,N/A,,Overcast,290,2014-02-13 10:39:00
5:49 AM,32.0,32.0,100,29.73,6.0,WNW,2.3,-,N/A,Snow,Light Snow,290,2014-02-13 10:49:00
5:54 AM,32.0,32.0,100,29.73,4.0,WNW,2.3,-,N/A,Snow,Light Snow,290,2014-02-13 10:54:00
5:58 AM,32.0,32.0,100,29.76,3.0,WNW,2.3,-,0.00,Snow,Light Snow,290,2014-02-13 10:58:00
6:13 AM,32.0,32.0,100,29.73,3.0,WNW,2.3,-,N/A,Snow,Light Snow,290,2014-02-13 11:13:00
6:18 AM,32.0,32.0,100,29.73,3.0,WNW,2.3,-,N/A,Snow,Light Snow,290,2014-02-13 11:18:00
6:23 AM,32.0,32.0,100,29.73,3.0,WNW,2.3,-,N/A,Snow,Light Snow,290,2014-02-13 11:23:00
6:28 AM,32.0,32.0,100,29.73,2.5,WNW,2.3,-,N/A,Snow,Light Snow,290,2014-02-13 11:28:00
6:33 AM,32.0,32.0,100,29.73,2.5,WNW,2.3,-,N/A,Snow,Light Snow,290,2014-02-13 11:33:00
6:43 AM,32.0,32.0,100,29.73,3.0,WNW,2.3,-,N/A,Snow,Light Snow,290,2014-02-13 11:43:00
6:58 AM,31.3,30.7,98,29.76,4.0,WNW,3.5,-,0.01,Snow,Light Snow,290,2014-02-13 11:58:00
7:03 AM,32.0,32.0,100,29.73,4.0,WNW,3.5,-,N/A,Snow,Light Snow,290,2014-02-13 12:03:00
7:18 AM,32.0,32.0,100,29.73,5.0,WNW,4.6,-,N/A,Snow,Light Snow,300,2014-02-13 12:18:00
7:58 AM,32.4,31.8,98,29.78,5.0,WNW,3.5,-,0.00,Snow,Light Snow,290,2014-02-13 12:58:00
8:52 AM,32.0,32.0,100,29.75,10.0,WNW,3.5,-,N/A,,Overcast,290,2014-02-13 13:52:00
8:58 AM,32.9,32.2,97,29.79,10.0,WNW,5.8,-,0.01,,Overcast,300,2014-02-13 13:58:00
9:58 AM,33.6,32.5,96,29.80,10.0,WNW,15.0,19.6,N/A,,Overcast,300,2014-02-13 14:58:00
10:03 AM,33.8,32.0,93,29.76,10.0,WNW,12.7,-,N/A,,Overcast,300,2014-02-13 15:03:00
10:13 AM,33.8,32.0,93,29.77,10.0,WNW,13.8,-,N/A,,Overcast,300,2014-02-13 15:13:00
10:23 AM,33.8,32.0,93,29.77,10.0,WNW,13.8,-,N/A,,Overcast,300,2014-02-13 15:23:00
10:58 AM,34.5,32.5,92,29.82,10.0,WNW,8.1,18.4,N/A,,Overcast,300,2014-02-13 15:58:00
11:18 AM,35.6,32.0,87,29.79,10.0,WNW,13.8,-,N/A,,Mostly Cloudy,290,2014-02-13 16:18:00
11:23 AM,35.6,32.0,87,29.79,10.0,WNW,13.8,-,N/A,,Mostly Cloudy,300,2014-02-13 16:23:00
11:33 AM,35.6,32.0,87,29.78,10.0,WNW,12.7,24.2,N/A,,Scattered Clouds,300,2014-02-13 16:33:00
11:48 AM,35.6,32.0,87,29.78,10.0,WNW,17.3,24.2,N/A,,Mostly Cloudy,290,2014-02-13 16:48:00
11:53 AM,37.4,32.0,81,29.78,10.0,WNW,15.0,24.2,N/A,,Mostly Cloudy,300,2014-02-13 16:53:00
11:58 AM,36.7,33.3,87,29.81,10.0,WNW,16.1,-,N/A,,Mostly Cloudy,290,2014-02-13 16:58:00
12:03 PM,37.4,32.0,81,29.78,10.0,WNW,18.4,24.2,N/A,,Scattered Clouds,290,2014-02-13 17:03:00
12:08 PM,37.4,33.8,87,29.78,10.0,WNW,19.6,24.2,N/A,,Mostly Cloudy,290,2014-02-13 17:08:00
12:09 PM,37.4,33.8,87,29.78,10.0,WNW,17.3,24.2,N/A,,Mostly Cloudy,290,2014-02-13 17:09:00
12:19 PM,37.4,33.8,87,29.79,10.0,NW,19.6,-,N/A,,Scattered Clouds,310,2014-02-13 17:19:00
12:29 PM,39.2,33.8,81,29.79,10.0,WNW,20.7,27.6,N/A,,Mostly Cloudy,300,2014-02-13 17:29:00
12:58 PM,38.3,34.2,85,29.83,10.0,WNW,10.4,-,N/A,,Overcast,300,2014-02-13 17:58:00
1:43 PM,39.2,33.8,81,29.79,10.0,WNW,9.2,20.7,N/A,,Overcast,300,2014-02-13 18:43:00
1:58 PM,40.8,34.9,79,29.82,10.0,NW,15.0,20.7,N/A,,Overcast,310,2014-02-13 18:58:00
2:53 PM,42.8,32.0,66,29.78,10.0,NW,15.0,-,N/A,,Scattered Clouds,310,2014-02-13 19:53:00
2:58 PM,43.0,33.1,68,29.81,10.0,NW,12.7,-,N/A,,Scattered Clouds,320,2014-02-13 19:58:00
3:58 PM,44.6,31.3,60,29.81,10.0,West,13.8,18.4,N/A,,Clear,280,2014-02-13 20:58:00
4:58 PM,44.4,24.6,46,29.83,10.0,WNW,11.5,-,N/A,,Clear,300,2014-02-13 21:58:00
5:58 PM,41.9,25.5,52,29.85,10.0,West,8.1,-,N/A,,Clear,270,2014-02-13 22:58:00
6:58 PM,37.2,25.7,63,29.87,10.0,West,6.9,-,N/A,,Clear,280,2014-02-13 23:58:00
7:58 PM,37.2,27.1,67,29.89,10.0,West,8.1,-,N/A,,Clear,270,2014-02-14 00:58:00
8:58 PM,35.1,26.2,70,29.88,10.0,West,5.8,-,N/A,,Clear,260,2014-02-14 01:58:00
9:58 PM,34.5,27.0,74,29.90,10.0,WSW,4.6,-,N/A,,Clear,250,2014-02-14 02:58:00
10:58 PM,32.2,25.9,78,29.91,10.0,WSW,6.9,-,N/A,,Clear,250,2014-02-14 03:58:00
11:58 PM,31.3,27.0,84,29.91,10.0,WSW,2.3,-,N/A,,Clear,240,2014-02-14 04:58:00